Presure
130 136 86 141 131 82 125 108 133 139 159 144 178 129 168 170 157 101 102 99 147 119 137 124 124 166 169 158 161 163 156 163 149 144 152 156 97 111 148 131 129 129 105
135 162 134 126 131 126 83 143 128 140 151 106 173 180 165 174 103 164 148 134 113 144 132 133 165 163 156 152 155 159 161 154 150 145 146 146 103 105 101 96 91 94 93
138 138 140 120 130 129 123 101 118 149 141 163 167 170 182 169 170 171 168 125 129 161 114 136 135 162 146 156 150 141 158 158 139 140 134 135 94 103 99 97 100 102 96
164 188 141 153 170 180 139 108 125 134 143 157 165 168 170 177 170 146 173 172 139 138 124 131 140 134 118 124 149 137 131 137 124 136 109 104 99 103 95 103 104 98 100
154 109 175 178 177 171 149 128 118 170 163 145 161 164 177 170 174 162 144 163 162 141 146 129 120 145 132 152 150 137 137 130 122 118 97 102 94 105 113 101 92 95 99
135 186 178 178 175 173 154 124 175 173 142 157 156 161 166 176 178 163 166 169 178 117 123 127 128 123 114 132 117 143 144 142 126 136 117 105 102 101 99 93 100 94 90
189 186 175 176 181 174 176 178 161 175 177 170 153 163 167 154 178 169 163 169 185 162 112 128 144 127 156 117 110 127 135 114 110 126 122 95 97 96 98 90 95 91 96
184 183 91 175 182 170 174 170 168 166 167 170 173 168 165 153 181 175 178 173 175 174 126 168 149 142 140 112 119 104 112 111 101 100 107 93 96 97 96 90 94 90 96
186 169 178 94 170 174 171 168 173 179 152 158 167 162 158 171 166 167 181 177 174 175 121 176 145 141 147 115 143 109 103 99 96 145 131 99 100 96 95 96 95 95 97
172 187 185 182 183 181 178 174 166 167 168 178 162 153 162 152 171 99 155 169 171 146 156 172 177 127 145 145 140 118 109 107 114 110 105 98 99 95 96 95 93 94 101
178 178 186 179 179 182 179 163 181 157 153 170 179 167 156 162 157 171 126 157 164 172 169 164 176 179 167 128 130 149 188 173 169 144 145 158 99 100 103 97 100 103 104
177 176 178 177 177 170 171 133 177 178 184 186 170 168 177 164 153 160 169 132 129 141 145 133 165 170 157 154 122 174 176 163 156 141 132 135 137 210 150 157 158 202 165
187 179 181 177 162 174 169 125 163 187 181 178 183 169 160 167 149 176 157 133 157 156 170 169 171 119 121 173 173 174 158 133 129 126 133 182 173 162 205 210 190 205 193
93 91 179 186 172 188 170 107 172 175 195 180 182 180 189 172 163 163 178 163 151 184 164 158 181 161 160 161 160 131 111 120 151 131 197 196 203 183 191 199 153 201 190
113 97 181 168 161 188 178 165 117 165 191 190 185 189 185 184 182 176 140 141 135 160 185 122 126 96 120 121 117 121 115 128 181 190 202 134 149 172 205 163 179 145 169
200 198 152 90 174 113 158 178 170 142 183 192 191 192 189 188 125 142 156 169 136 176 141 186 180 151 137 124 120 126 132 137 149 186 187 190 201 185 194 190 146 162 177
157 172 192 193 98 196 182 175 174 179 169 159 173 173 180 209 196 152 119 172 156 162 170 108 116 129 128 121 132 133 135 214 195 155 190 197 210 196 145 197 190 144 186
180 201 200 178 200 91 175 164 96 182 186 186 185 174 180 176 183 191 178 193 189 195 193 154 130 151 130 194 128 197 210 156 153 199 183 198 187 178 129 135 141 132 189
179 177 189 192 163 200 144 148 102 175 100 162 172 186 140 185 191 182 163 172 125 166 197 196 212 221 210 206 207 205 199 201 195 163 194 191 196 132 191 127 119 202 196
193 189 191 172 171 176 191 165 102 154 168 104 129 111 91 186 189 193 121 121 202 209 201 204 210 187 196 175 190 167 188 155 116 186 191 125 166 189 100 124 120 180 158
194 179 167 181 177 185 203 184 182 178 103 192 173 189 191 187 176 209 175 102 110 170 171 200 115 125 169 192 197 197 198 177 140 158 183 206 120 118 170 94 122 110 95
193 170 179 167 178 198 213 116 132 144 192 188 121 189 190 124 126 102 104 167 152 201 194 182 150 194 178 106 172 181 193 111 138 166 100 176 101 172 92 97 119 175 172
194 178 186 189 199 188 136 187 184 176 178 179 179 195 186 153 146 177 159 124 106 148 160 191 178 180 166 180 166 189 178 154 89 124 125 201 151 180 139 153 178 172 172
192 178 191 184 189 174 167 165 166 166 163 178 172 175 181 175 108 186 197 191 200 215 155 163 177 197 169 173 185 120 172 183 184 105 204 132 190 200 156 179 217 151 165
188 192 171 190 168 165 206 198 186 197 107 149 181 171 166 185 183 191 189 195 144 202 198 121 202 201 185 168 132 99 157 93 153 164 167 168 232 174 139 160 187 177 167
217 196 194 189 178 181 178 172 179 154 206 201 166 185 187 181 177 176 129 175 188 168 176 128 156 202 188 193 193 158 93 142 142 175 176 170 180 173 173 191 194 182 153
Wind_Speed
35 34 19 33 28 9 24 16 23 24 27 26 29 23 30 33 35 14 14 11 27 10 19 13 13 25 23 18 20 21 19 22 17 15 17 18 12 5 17 12 19 21 15
38 46 35 33 31 27 10 31 24 26 28 21 30 31 30 33 17 37 33 24 14 27 18 19 26 24 19 17 18 20 21 20 18 16 16 18 11 9 10 11 11 13 15
41 38 39 32 33 31 30 17 23 32 28 32 31 32 33 33 33 35 37 21 21 32 15 20 18 23 17 20 19 18 23 24 14 13 10 16 15 13 13 15 15 13 17
46 47 41 46 46 46 35 22 29 29 31 33 33 33 33 34 35 34 38 39 26 24 21 19 21 19 16 18 20 19 16 19 11 14 15 16 17 15 18 16 15 17 18
41 31 48 48 47 46 42 34 32 39 37 31 35 34 36 36 37 37 35 38 39 27 30 20 19 25 22 26 23 21 23 16 15 16 20 20 20 18 18 17 18 19 22
39 48 48 48 47 47 44 35 42 41 33 36 36 37 36 38 40 38 39 40 43 20 22 22 24 22 17 22 17 24 27 26 18 23 19 21 20 20 19 18 22 20 19
51 49 49 47 47 47 45 44 43 41 41 40 37 38 38 36 40 39 39 39 42 38 22 25 31 25 35 20 17 21 24 21 20 24 24 21 22 22 21 21 24 21 28
52 50 33 48 47 48 47 45 45 42 42 42 42 40 39 38 41 41 43 42 42 42 27 40 35 31 31 20 22 24 24 24 23 24 25 24 25 25 23 23 27 24 30
54 49 52 32 50 50 49 47 45 43 43 42 43 42 42 42 41 40 42 42 43 43 29 44 34 33 35 24 35 26 27 26 25 39 34 28 29 28 25 26 28 32 34
52 55 54 53 53 51 49 49 48 46 46 48 44 43 44 42 44 23 39 43 43 38 41 44 46 30 38 38 34 30 31 31 34 35 32 29 31 30 29 30 31 35 42
59 56 56 55 53 51 51 47 51 47 46 49 46 47 45 45 44 46 32 43 44 45 46 46 46 46 43 29 29 36 41 42 42 39 40 45 33 34 37 34 40 45 40
65 60 57 55 54 53 51 44 49 48 50 52 48 50 48 48 47 47 48 38 34 41 42 35 47 47 42 39 31 43 43 41 42 42 44 45 46 38 44 51 53 41 53
70 63 61 55 53 54 50 37 45 50 50 47 49 51 51 50 49 49 50 39 50 48 52 52 51 30 28 45 44 43 41 39 42 45 47 47 49 52 39 37 41 39 44
39 37 62 60 57 57 55 41 52 48 55 51 51 53 52 54 55 55 49 50 48 53 52 47 51 44 43 41 41 36 43 45 43 48 41 41 36 44 40 40 56 41 44
47 46 65 59 59 59 57 58 44 53 51 53 53 53 54 52 53 58 46 45 40 52 57 34 36 31 38 36 38 40 47 45 43 43 41 33 55 48 38 57 51 54 50
51 67 60 39 60 43 61 57 60 48 50 50 52 52 52 53 36 48 52 59 37 54 42 46 56 43 34 35 42 40 43 45 50 43 44 43 37 42 42 44 58 52 52
56 58 67 60 42 60 58 57 61 55 60 51 58 59 56 48 50 55 34 55 55 56 58 33 37 35 35 41 41 42 44 39 43 54 41 40 40 41 62 42 45 56 52
72 68 59 58 54 38 56 57 37 55 52 53 55 55 58 59 55 54 58 51 50 50 53 45 38 45 39 45 35 43 40 53 55 44 46 41 46 48 52 43 60 50 49
68 63 61 54 69 51 46 50 44 53 41 58 53 56 48 59 56 58 57 48 42 42 50 49 41 40 42 42 43 43 43 44 44 44 46 43 44 59 49 56 44 49 50
79 63 48 74 70 69 57 62 38 58 62 38 42 41 37 60 58 54 38 41 47 43 46 40 35 54 47 45 49 55 52 48 38 49 49 34 41 49 45 53 51 46 63
79 81 80 74 74 69 58 65 65 70 41 59 59 60 61 57 60 50 47 36 39 57 59 43 36 38 46 51 45 46 46 50 50 55 49 51 49 51 58 47 52 54 56
85 78 86 73 70 67 56 34 52 60 59 59 46 56 57 40 47 42 41 55 51 49 50 46 45 44 51 56 52 55 53 52 55 57 36 50 45 43 50 48 51 51 53
89 85 87 80 70 75 52 70 70 66 63 61 63 54 52 53 47 60 60 48 44 49 53 53 57 56 52 58 54 55 48 60 37 65 65 54 47 52 63 65 50 53 58
91 88 84 89 82 73 73 58 59 65 68 67 71 56 59 58 45 55 50 59 42 39 48 58 64 53 64 59 56 43 38 42 40 49 62 74 64 63 48 53 62 77 65
89 96 84 90 73 71 67 69 54 65 47 60 68 68 65 56 51 50 53 53 52 52 52 53 54 54 69 50 68 37 53 38 52 46 52 50 66 63 56 71 64 66 71
102 100 101 92 85 88 79 73 70 56 66 67 58 68 66 62 62 65 56 66 52 61 55 57 43 59 57 62 59 52 40 52 48 51 54 58 61 57 58 73 69 66 72
Wind_Direction
238 240 239 240 233 239 234 241 250 255 254 256 242 235 236 232 240 226 230 228 249 262 260 279 283 249 246 256 256 259 262 259 264 277 277 282 265 256 286 281 284 285 304
237 238 234 230 232 230 240 254 239 251 256 227 247 240 237 237 220 241 252 251 242 258 256 269 252 254 252 259 265 266 265 265 272 287 295 302 264 276 281 292 296 309 319
244 238 241 233 233 234 231 250 250 253 250 253 250 248 240 245 242 244 246 249 248 253 246 262 264 258 263 264 261 268 266 265 282 287 290 296 283 274 288 296 294 294 315
237 227 239 241 239 238 238 249 234 243 248 252 251 249 249 245 245 250 245 246 249 252 252 253 260 258 259 266 262 268 275 281 258 285 273 263 280 274 292 282 289 303 303
232 237 232 235 238 240 242 234 235 245 246 248 250 249 246 247 246 246 253 251 252 251 254 252 252 259 261 260 259 268 273 270 265 267 273 270 284 276 279 291 295 303 312
233 227 230 234 237 239 242 233 244 244 239 246 249 248 248 247 247 248 251 252 252 241 247 252 252 254 255 260 263 262 265 271 270 279 262 265 275 281 288 291 295 299 296
230 227 229 232 235 237 238 240 244 243 243 244 247 248 249 248 250 250 252 254 258 255 243 251 256 254 262 259 254 265 268 264 264 274 266 264 275 280 290 282 294 293 300
236 229 245 230 233 234 237 238 241 241 245 244 245 247 247 249 249 251 253 256 258 257 247 261 258 259 258 251 259 257 261 262 260 262 264 267 273 278 282 277 287 285 291
238 235 230 247 232 233 235 237 238 240 240 242 244 247 247 249 251 251 253 255 258 260 245 263 258 258 259 255 263 258 260 258 257 279 275 268 271 276 278 283 287 287 289
237 235 231 232 233 233 234 236 237 239 241 243 242 243 248 245 253 244 254 256 257 250 256 262 265 250 258 259 260 262 264 265 266 265 267 269 271 276 281 282 283 283 285
238 235 234 231 230 232 234 238 238 239 240 244 245 245 245 248 249 254 250 253 257 259 259 259 264 266 266 260 263 271 277 277 281 280 282 286 275 278 280 281 281 282 285
234 234 232 233 233 232 232 234 238 241 245 246 245 246 249 248 245 248 253 248 254 249 253 257 259 262 263 266 265 271 276 277 281 278 278 280 281 304 288 290 292 301 295
230 232 233 231 232 237 236 240 241 245 247 247 250 244 243 246 241 253 247 251 253 254 258 260 262 266 269 268 272 275 272 274 274 274 278 289 289 289 299 303 300 302 301
251 249 233 233 231 233 236 245 237 239 248 245 247 248 254 244 245 248 256 253 254 261 259 262 263 267 269 269 272 267 274 274 283 279 291 295 297 292 296 300 293 306 304
244 250 232 234 229 231 234 237 249 237 248 248 247 251 249 251 251 247 251 253 256 258 260 261 264 262 265 266 270 271 274 280 289 289 289 283 286 292 303 289 291 294 295
240 233 233 245 232 238 233 235 239 245 242 248 250 254 256 253 254 247 251 253 261 263 265 266 266 264 259 262 266 270 276 286 290 287 290 295 302 293 302 298 287 293 298
235 229 226 225 244 229 229 232 236 238 238 244 243 244 249 256 252 250 252 256 258 261 265 269 266 263 261 258 266 272 281 293 287 284 288 297 294 298 286 304 305 291 299
221 227 220 232 227 245 230 233 248 237 239 243 246 247 250 250 255 257 253 259 260 263 267 264 261 268 259 282 264 285 289 280 282 290 286 294 293 291 290 291 291 291 305
221 227 226 233 228 229 232 235 246 237 247 240 246 250 246 251 253 255 254 257 262 264 266 269 273 277 276 279 282 286 284 289 286 284 291 290 295 284 295 284 286 307 304
210 210 216 231 229 229 226 230 243 237 239 248 246 252 248 251 252 257 264 266 258 257 264 265 273 271 274 274 276 277 281 281 277 283 288 275 293 295 273 290 285 295 294
206 213 226 220 228 226 225 223 230 235 244 238 245 241 245 251 257 255 259 263 265 265 268 259 262 261 272 275 279 283 285 285 274 279 289 296 299 298 291 278 294 286 280
208 226 218 237 230 234 221 236 239 239 237 242 247 245 246 250 254 252 254 263 260 259 262 256 268 266 269 270 276 281 283 285 286 277 282 295 277 289 279 283 289 285 286
212 221 213 213 214 224 227 223 225 234 236 242 246 242 240 249 251 262 263 259 263 258 266 263 267 269 273 275 278 284 286 288 270 281 284 300 297 297 293 284 293 289 289
213 226 210 222 220 233 229 238 234 237 241 239 245 242 247 249 252 260 260 262 257 258 264 270 267 261 273 270 278 288 291 296 303 291 300 283 295 294 294 297 299 288 286
218 215 234 220 238 243 228 223 232 224 249 239 241 245 248 241 249 253 260 261 263 259 258 266 257 258 270 269 263 278 276 271 276 279 286 281 296 294 289 279 307 294 284
204 213 216 223 229 232 240 242 234 247 226 228 244 236 240 243 250 257 259 263 265 268 268 263 281 258 269 270 273 273 278 276 292 294 299 292 301 287 292 312 306 305 302